Location: Ferchesar
(52.6477°N, 12.4298°E)
Time: 14:17:51
(UTC+01:00)

AO-73 - Pass Details

Date: 30 October 2021
Orbit: 581 x 660 km, 97.6° (Epoch: 04 December)

Event Time Altitude Azimuth Distance (km) Brightness Sun altitude
Rises 04:35:00 0° 28° (NNE) 2,837 ? -31.7°
Reaches altitude 10° 04:38:02 10° 52° (NE) 1,941 ? -31.3°
Maximum altitude 04:40:28 15° 88° (E) 1,648 ? -30.9°
Drops below altitude 10° 04:42:54 10° 123° (ESE) 1,956 ? -30.6°
Sets 04:45:58 0° 147° (SSE) 2,871 ? -30.1°
